Regional Weather Roundup
Issued by NWS Sterling, VA

Home | Current Version | Previous Version | Graphics & Text | Print | Product List | Glossary On
Versions: 1 2 3 4 5 6 7 8 9 10 11 12 13 14 15 16 17 18 19 20 21 22 23 24 25 26 27 28 29 30 31 32 33 34 35 36 37 38 39 40 41 42 43 44 45 46 47 48 49 50
000
ASUS41 KLWX 261110
RWRLWX

REGIONAL WEATHER ROUNDUP
NATIONAL WEATHER SERVICE BALTIMORE MD/WASHINGTON DC
600 AM EST THU FEB 26 2015

Note: "FAIR" indicates few or no clouds below 12,000 feet
with no significant weather and/or obstructions to visibility.
 TC=TEMPERATURE CELSIUS

 * =Non NWS site. Station does not report precipitation (e.g. rain,
    snow, etc.), thunder, or fog.

DCZ001-MDZ009-015-VAZ040>042-051-053>054-261200-
WASHINGTON METRO

CITY           SKY/WX    TMP DP  RH WIND       PRES   REMARKS
WASHINGTON NAT LGT SNOW  30  27  86 NE9       29.91S WCI  22
DULLES         LGT SNOW  28  27  93 N7        29.89S VSB 1
ANDREWS AFB    LGT SNOW  28  27  93 N8        29.88S FOG     WCI  20
FT BELVOIR     LGT SNOW  30  27  86 VRB2      29.90F FOG
QUANTICO       LGT SNOW  31  27  85 NE8       29.91R VSB 3/4 WCI  23
COLLEGE PARK*  CLOUDY    30  28  93 CALM      29.91R
LEESBURG*      LGT SNOW  30  30 100 N7        29.90S
MANASSAS*      CLOUDY    30  28  93 N6        29.89F
GAITHERSBURG*  CLOUDY    27  23  86 NE5       29.93R

$$

MDZ006>007-011-014-261200-
BALTIMORE METRO

CITY           SKY/WX    TMP DP  RH WIND       PRES   REMARKS
BWI AIRPORT    SNOW      28  27  93 NE6       29.91R VSB 1/2
MD SCIENCE CTR   N/A     30  24  78 MISG      29.92R
MARTIN STATE   LGT SNOW  30  27  86 CALM      29.94R
ANNAPOLIS      LGT SNOW  30  25  81 N6        29.91R
FORT MEADE*      N/A     30  27  86 N5        29.93S

$$

MDZ012-015-019>023-261200-
MARYLAND EASTERN SHORE

CITY           SKY/WX    TMP DP  RH WIND       PRES   REMARKS
OCEAN CITY     SNOW      31  30  96 NE13      29.84S VSB 1/2 WCI  21
SALISBURY      SNOW      32  28  85 NE8       29.86R VSB 1/2 WCI  25
BAY BRIDGE AP* LGT SNOW  32  25  74 NE6       29.92R
CAMBRIDGE*     CLOUDY    32  28  86 NE5       29.88R
EASTON*        LGT SNOW  32  28  86 E7        29.92R FOG

$$

MDZ017>025-261200-
SOUTHERN MARYLAND

CITY           SKY/WX    TMP DP  RH WIND       PRES   REMARKS
PATUXENT RIVER LGT SNOW  30  27  88 NE10      29.87S VSB 1   WCI  21
ST INIGOES     LGT SNOW  31  26  82 N7        29.87R VSB 3/4
LEONARDTOWN*   CLOUDY    30  28  93 NE3       29.89R VSB 1

$$

MDZ003>005-261200-
NORTH CENTRAL MARYLAND

CITY           SKY/WX    TMP DP  RH WIND       PRES   REMARKS
FREDERICK*     NOT AVBL
HAGERSTOWN APT CLOUDY    30  13  49 N6        29.88S
WESTMINSTER*   CLOUDY    28  14  54 E3        29.89R

$$

MDZ501>502-261200-
WESTERN MARYLAND

CITY           SKY/WX    TMP DP  RH WIND       PRES   REMARKS
OAKLAND*       CLOUDY    21  10  63 SE12      29.73R WCI   9
CUMBERLAND*    CLOUDY    32  12  43 CALM      29.91S

$$

VAZ025>031-261200-
SHENANDOAH VALLEY

CITY           SKY/WX    TMP DP  RH WIND       PRES   REMARKS
WINCHESTER*    LGT SNOW  30  27  86 CALM      29.87S
FRONT ROYAL*   CLOUDY    28  27  93 CALM      29.85S
LURAY*         LGT SNOW  30  30 100 N8        29.84R WCI  23
NEW MARKET*    CLOUDY    27  25  89 N7        29.83S
STAUNTON*      LGT SNOW  29  26  88 N5        29.83S
WAYNESBORO*    CLOUDY    27  26  96 N5        29.79S

$$

WVZ021-048>050-054>055-261200-
EASTERN WEST VIRGINIA PANHANDLE

CITY           SKY/WX    TMP DP  RH WIND       PRES   REMARKS
MARTINSBURG    LGT SNOW  29  23  78 E3        29.89R
PETERSBURG*    NOT AVBL

$$

VAZ036>039-050-261200-
CENTRAL FOOTHILLS

CITY           SKY/WX    TMP DP  RH WIND       PRES   REMARKS
CHARLOTTESVILL LGT SNOW  29  26  89 NE9       29.84S FOG     WCI  20
CULPEPER*      LGT SNOW  28  28 100 CALM      29.88S
ORANGE*        LGT SNOW  30  28  93 N3        29.88S
GORDONSVILLE*  CLOUDY    28  26  94 NE6       29.85R FOG
WARRENTON*     LGT SNOW  30  30 100 NE3       29.88R

$$

VAZ055>057-261200-
NORTH AND CENTRAL PIEDMONT

CITY           SKY/WX    TMP DP  RH WIND       PRES   REMARKS
FREDERICKSBRG* LGT SNOW  31  31 100 N5        29.88R VSB 3/4
STAFFORD*      LGT SNOW  29  32 100 N3        29.92S

$$

NCZ024-NYZ072-PAZ021-071-VAZ022-071-261200-
OTHER REGIONAL OBSERVATIONS

CITY           SKY/WX    TMP DP  RH WIND       PRES   REMARKS
NEW YORK CITY  CLOUDY    22   2  42 NE10      30.02S WCI  11
PHILADELPHIA   CLOUDY    28  12  51 NE16      29.95S WCI  16
PITTSBURGH     CLOUDY    18   6  59 N12       29.87R WCI   5
ROANOKE        LGT SNOW  29  26  89 NE7       29.80S FOG
RICHMOND       HVY SNOW  31  28  89 N10       29.83R VSB 1/8 WCI  22
RALEIGH        SNOW      31  27  85 N9G20     29.72R VSB 1/2 WCI  23

$$

ANZ530>537-261200-
MARINE OBSERVATIONS

STATION/POSITION TIME  TEMP    WIND        PRES
                       AIR SEA DIR/SP/G
                 (UTC) (F)     (DEG/KT/KT) (MB)
THOMAS PT LIGHT  1100   31 31   30/ 12/ 13 1013.7R
BALT KEY BRIDGE  1000   31      20/  8/  9 1012.4F
COVE POINT       1000   28      60/ 10/ 12 1011.1S
LEWISETTA        1000   30 33              1010.5R
SOLOMONS ISLAND  1000      32                N/A

$$




USA.gov is the U.S. government's official web portal to all federal, state and local government web resources and services.